Regional Weather Roundup
Issued by NWS

Home | Current Version | Previous Version | Graphics & Text | Print | Product List | Glossary On
Versions: 1 2 3 4 5 6 7 8 9 10 11 12 13 14 15 16 17 18 19 20 21 22 23 24 25 26 27 28 29 30 31 32 33 34 35 36 37 38 39 40 41 42 43 44 45 46 47 48 49 50
000
ASUS43 KBIS 281410
RWRND

NORTH DAKOTA REGIONAL WEATHER ROUNDUP
NATIONAL WEATHER SERVICE BISMARCK ND
900 AM CDT SAT MAR 28 2015

NOTE: "FAIR" INDICATES FEW OR NO CLOUDS BELOW 12,000 FEET WITH NO
SIGNIFICANT WEATHER AND/OR OBSTRUCTIONS TO VISIBILITY.


NDZ001>003-009>011-017-281500-
NORTHWEST NORTH DAKOTA

CITY           SKY/WX    TMP DP  RH WIND       PRES   REMARKS
WILLISTON      SUNNY     41  35  79 S6        29.75F
MINOT          CLOUDY    30  28  92 SE10      29.84F FOG
MINOT AFB      FRZ DRZL  30  30 100 SE12      29.83F VSB 1/2
$$

NDZ018>021-031>035-040>046-281500-
SOUTHWEST NORTH DAKOTA

CITY           SKY/WX    TMP DP  RH WIND       PRES   REMARKS
BISMARCK       FOG       29  28  96 SE10      29.95F VSB 1/4 WCI  20
DICKINSON      SUNNY     43  34  70 S16       29.81F
GARRISON         N/A     30  29  96 SE10      29.87F
HETTINGER ARPT SUNNY     41  34  76 SE8       29.88F
$$

NDZ004>008-012>016-024-026-027-054-281500-
NORTHEAST NORTH DAKOTA

CITY           SKY/WX    TMP DP  RH WIND       PRES   REMARKS
GRAND FORKS    CLOUDY    27  22  81 S15       30.08F WCI  15
GRND FRKS AFB  MOSUNNY   27  22  79 S13       30.06F WCI  16
DEVILS LAKE    CLOUDY    30  27  86 S14       29.96F WCI  20
$$

NDZ022-023-025-028>030-036>039-047>053-281500-
SOUTHEAST NORTH DAKOTA

CITY           SKY/WX    TMP DP  RH WIND       PRES   REMARKS
FARGO          MOSUNNY   30  22  72 S16       30.11F WCI  19
JAMESTOWN      CLOUDY    31  27  85 S13       30.00F
$$




USA.gov is the U.S. government's official web portal to all federal, state and local government web resources and services.